Location: Star Dogged Moon Observatory
(29.7756°N, 82.0783°W)
Time: 04:15:34
(UTC-04:00)

Amateur Radio Satellites - All Passes

Search period start: 24 March 2017 03:45
Search period end: 25 March 2017 03:45
Location: Star Dogged Moon Observatory, 29.7756°N, 82.0783°W

Satellite Date Start Highest point End Downlink Frequencies (MHz)
Time Altitude Azimuth
Oscar 19 24 Mar 03:48:34 03:52:50 27° 290° (WNW) 03:57:08 437.125/150
ITAMSAT 1 24 Mar 03:50:02 03:53:56 21° 96° (E) 03:57:49 435.822/435.867
BEESAT 24 Mar 03:53:54 03:58:39 67° 258° (WSW) 04:03:25 436.000
ITUPSAT 1 24 Mar 04:08:16 04:12:52 46° 260° (W) 04:17:30 437.325
AO-7 24 Mar 04:12:28 04:19:48 34° 100° (E) 04:27:05 .
O/OREOS (USA 219) 24 Mar 04:14:25 04:18:49 44° 69° (ENE) 04:23:11 437.305
MOZHAYETS 4 24 Mar 04:37:23 04:41:55 57° 260° (W) 04:46:27
KKS-1 24 Mar 04:40:53 04:44:38 28° 72° (ENE) 04:48:25 437.445
ISS 24 Mar 04:48:47 04:49:43 11° 34° (NNE) 04:50:38 437.550
Tancredo 1 24 Mar 05:01:07 05:03:05 15° 37° (NE) 05:05:04 437.200
CUBESAT XI-V 24 Mar 05:21:38 05:26:09 60° 76° (ENE) 05:30:41 437.345
STARS 24 Mar 05:24:58 05:29:02 37° 73° (ENE) 05:33:08 437.465
ITAMSAT 1 24 Mar 05:28:45 05:33:22 33° 289° (WNW) 05:37:57 435.822/435.867
O/OREOS (USA 219) 24 Mar 05:55:56 05:57:44 12° 261° (W) 05:59:32 437.305
AO-7 24 Mar 06:04:51 06:12:28 43° 294° (WNW) 06:20:06 .
DOVE 4 24 Mar 06:10:31 06:12:37 12° 92° (E) 06:14:42 437.250
KKS-1 24 Mar 06:17:57 06:21:08 19° 264° (W) 06:24:19 437.445
ISS 24 Mar 06:23:12 06:26:28 65° 229° (SW) 06:29:43 437.550
Tancredo 1 24 Mar 06:36:21 06:39:19 35° 230° (SW) 06:42:16 437.200
M-CUBED/EXP-1 PRIME 24 Mar 06:44:25 06:47:50 58° 71° (ENE) 06:51:31 437.505
CUTE-I 24 Mar 06:57:50 07:02:13 26° 97° (E) 07:06:35 437.470
STARS 24 Mar 07:03:12 07:05:27 14° 265° (W) 07:07:41 437.465
LilacSat-2 24 Mar 07:08:15 07:11:44 35° 99° (E) 07:15:12 437.200
AO-85 24 Mar 07:09:14 07:12:27 23° 58° (ENE) 07:15:44 145.980
XW-2F 24 Mar 07:12:03 07:15:31 36° 99° (E) 07:18:58 145.980 - 146.000
NO-84 24 Mar 07:19:05 07:21:39 28° 126° (SE) 07:24:09 435.350 FM
XW-2D 24 Mar 07:35:56 07:39:41 87° 283° (WNW) 07:43:24 145.860 - 145.880
XW-2B 24 Mar 07:41:48 07:45:32 74° 282° (WNW) 07:49:16 145.730 - 145.750
DOVE 4 24 Mar 07:45:20 07:50:34 59° 285° (WNW) 07:55:40 437.250
NUDT-PHONESAT 24 Mar 07:45:44 07:49:24 84° 283° (WNW) 07:53:03 437.300
KAITUO 1B 24 Mar 07:49:24 07:53:04 73° 283° (WNW) 07:56:45 145.475/437.950
XW-2C 24 Mar 07:51:56 07:55:34 51° 284° (WNW) 07:59:12 145.795 - 145.815
JUGNU 24 Mar 08:18:07 08:21:45 17° 163° (SSE) 08:25:23 437.505
STRAND 1 24 Mar 08:19:39 08:24:48 78° 258° (WSW) 08:29:58 437.568
AAUSAT CUBESAT 2 24 Mar 08:37:13 08:38:27 11° 94° (E) 08:39:41 437.432
CUTE-I 24 Mar 08:37:35 08:42:09 29° 290° (WNW) 08:46:41 437.470
XW-2A 24 Mar 08:41:43 08:45:05 76° 100° (E) 08:48:25 145.665 - 145.685
SEEDS 24 Mar 08:42:11 08:45:56 31° 98° (E) 08:49:40 437.485
CUTE 1.7 + AOD 2 24 Mar 08:43:24 08:47:32 55° 100° (E) 08:51:40 437.475
LilacSat-2 24 Mar 08:45:08 08:45:37 10° 291° (WNW) 08:46:05 437.200
YUBILEINY 24 Mar 08:48:07 08:56:52 80° 94° (E) 09:05:37 435.215
AO-85 24 Mar 08:49:42 08:52:39 20° 249° (WSW) 08:55:41 145.980
NO-84 24 Mar 08:58:14 08:59:13 11° 318° (NW) 09:00:12 435.350 FM
HO-68 24 Mar 09:04:35 09:11:46 83° 105° (ESE) 09:18:57 435.675
UWE-3 24 Mar 09:06:06 09:09:30 23° 96° (E) 09:12:49 435.000/436.395/437.385
BEESAT 3 24 Mar 09:32:58 09:37:00 87° 241° (WSW) 09:40:58 437.485
CUBEBUG 2 24 Mar 09:33:11 09:37:35 86° 282° (WNW) 09:41:50 437.445
BEESAT 2 24 Mar 09:42:35 09:46:25 40° 60° (ENE) 09:50:13 435.950
FO-29 24 Mar 09:49:04 09:53:40 17° 64° (ENE) 09:58:10 435.910
Oscar 11 24 Mar 09:50:15 09:54:09 34° 98° (E) 09:58:03 .
ZACube-1 24 Mar 09:52:31 09:56:36 48° 100° (E) 10:00:36 437.345
PCSat 24 Mar 09:53:17 09:57:40 26° 107° (ESE) 10:02:04 145.827
JUGNU 24 Mar 10:05:15 10:10:13 28° 172° (S) 10:15:14 437.505
AAUSAT CUBESAT 2 24 Mar 10:10:08 10:14:00 39° 285° (WNW) 10:17:52 437.432
TIGRISAT 24 Mar 10:14:31 10:18:25 26° 72° (ENE) 10:22:19 435.000
SRMSAT 24 Mar 10:16:54 10:19:28 13° 161° (SSE) 10:22:01 437.500
SEEDS 24 Mar 10:18:55 10:21:17 15° 290° (WNW) 10:23:40 437.485
DELFI C3 24 Mar 10:19:21 10:22:14 19° 96° (E) 10:25:08 145.870
AO-73 24 Mar 10:22:28 10:26:39 74° 282° (WNW) 10:30:46 145.935
UNISAT 6 24 Mar 10:23:25 10:27:42 36° 73° (ENE) 10:32:00 437.425
PRISM 24 Mar 10:24:17 10:28:19 85° 78° (ENE) 10:32:24 437.425
UWE-3 24 Mar 10:42:36 10:45:46 20° 289° (WNW) 10:48:53 435.000/436.395/437.385
YUBILEINY 24 Mar 10:49:28 10:54:26 16° 290° (WNW) 10:59:25 435.215
HO-68 24 Mar 10:55:00 10:58:35 15° 299° (WNW) 11:02:10 435.675
BEESAT 2 24 Mar 11:22:30 11:23:45 11° 252° (WSW) 11:25:00 435.950
NANOSAT C BR1 24 Mar 11:27:28 11:27:43 10° 67° (ENE) 11:27:58 145.865
Oscar 11 24 Mar 11:27:34 11:29:57 15° 290° (WNW) 11:32:20 .
EO-79 24 Mar 11:28:50 11:30:32 12° 68° (ENE) 11:32:15 145.935-145.965
FO-29 24 Mar 11:29:55 11:37:49 83° 258° (WSW) 11:45:30 435.910
PCSat 24 Mar 11:36:04 11:40:51 32° 300° (WNW) 11:45:40 145.827
RS-15 24 Mar 11:40:47 11:46:55 16° 99° (E) 11:53:08 29.354- 29.394
ESTCUBE 1 24 Mar 11:46:37 11:48:19 12° 94° (E) 11:50:00 437.505/2401.250
TIGRISAT 24 Mar 11:51:18 11:54:58 23° 264° (W) 11:58:40 435.000
JUGNU 24 Mar 11:53:37 11:58:48 31° 183° (S) 12:04:01 437.505
DELFI C3 24 Mar 11:53:50 11:56:53 21° 288° (WNW) 11:59:56 145.870
POLYITAN 1 24 Mar 11:54:06 11:57:38 26° 72° (ENE) 12:01:12 437.675
QB50P2 24 Mar 11:58:19 12:02:05 31° 73° (ENE) 12:05:54 145.880/145.840
UNISAT 6 24 Mar 12:01:30 12:04:25 16° 265° (W) 12:07:21 437.425
SRMSAT 24 Mar 12:03:18 12:08:06 25° 169° (S) 12:12:53 437.500
DUCHIFAT 1 24 Mar 12:14:23 12:18:18 37° 74° (ENE) 12:22:13 145.980
AIST 2D 24 Mar 12:33:23 12:36:46 41° 261° (W) 12:40:08 435.315
SPROUT 24 Mar 12:38:53 12:39:38 10° 93° (E) 12:40:23 437.525
LO-87 24 Mar 12:40:42 12:44:15 51° 284° (WNW) 12:47:46 145.935 - 145.965
BUGSAT 1 24 Mar 12:41:33 12:44:55 24° 71° (ENE) 12:48:18 437.445
NANOSAT C BR1 24 Mar 12:58:47 13:02:55 50° 260° (W) 13:07:04 145.865
EO-79 24 Mar 13:01:50 13:05:51 41° 261° (W) 13:09:55 145.935-145.965
VELOX 1 24 Mar 13:08:22 13:12:21 32° 98° (E) 13:16:20 145.980
Gurwin Techsat 1B 24 Mar 13:18:28 13:19:00 10° 64° (ENE) 13:19:32 435.225
Oscar 19 24 Mar 13:20:52 13:24:41 22° 69° (ENE) 13:28:29 437.125/150
ESTCUBE 1 24 Mar 13:20:57 13:25:14 44° 286° (WNW) 13:29:31 437.505/2401.250
FO-29 24 Mar 13:20:58 13:23:22 12° 269° (W) 13:25:45 435.910
POLYITAN 1 24 Mar 13:30:17 13:33:20 19° 264° (W) 13:36:24 437.675
QB50P2 24 Mar 13:35:22 13:37:52 15° 265° (W) 13:40:24 145.880/145.840
UKube-1 24 Mar 13:39:58 13:43:00 18° 96° (E) 13:46:01 .
JUGNU 24 Mar 13:42:45 13:47:21 23° 192° (SSW) 13:51:58 437.505
RS-15 24 Mar 13:45:42 13:57:31 85° 114° (ESE) 14:09:53 29.354- 29.394
50 SAT 24 Mar 13:49:50 13:53:20 70° 101° (ESE) 13:56:50 437.505
SRMSAT 24 Mar 13:51:34 13:56:49 32° 179° (S) 14:02:05 437.500
DUCHIFAT 1 24 Mar 13:52:07 13:54:01 13° 266° (W) 13:55:57 145.980
SPROUT 24 Mar 14:11:36 14:15:41 44° 285° (WNW) 14:19:44 437.525
BUGSAT 1 24 Mar 14:17:02 14:20:08 20° 264° (W) 14:23:17 437.445
DX 1 24 Mar 14:29:35 14:33:57 67° 284° (WNW) 14:38:17 434.975-435.025
VELOX 1 24 Mar 14:45:36 14:48:30 17° 291° (WNW) 14:51:23 145.980
Gurwin Techsat 1B 24 Mar 14:52:56 14:58:14 76° 258° (WSW) 15:03:33 435.225
Oscar 19 24 Mar 14:59:09 15:03:43 33° 262° (W) 15:08:18 437.125/150
ITAMSAT 1 24 Mar 15:02:36 15:06:10 19° 68° (ENE) 15:09:44 435.822/435.867
AO-7 24 Mar 15:05:31 15:12:18 29° 63° (ENE) 15:19:03 .
UKube-1 24 Mar 15:15:18 15:18:57 27° 288° (WNW) 15:22:35 .
JUGNU 24 Mar 15:34:12 15:35:49 11° 200° (SSW) 15:37:27 437.505
NO-84 24 Mar 15:34:39 15:37:04 18° 45° (NE) 15:39:38 435.350 FM
SO-50 24 Mar 15:35:15 15:39:52 62° 115° (ESE) 15:44:26 436.795
SRMSAT 24 Mar 15:40:36 15:45:34 27° 189° (S) 15:50:30 437.500
BEESAT 24 Mar 16:00:02 16:04:39 50° 100° (E) 16:09:14 436.000
RS-15 24 Mar 16:02:04 16:11:32 26° 316° (NW) 16:21:17 29.354- 29.394
ITUPSAT 1 24 Mar 16:14:30 16:19:15 73° 102° (ESE) 16:23:59 437.325
MOZHAYETS 4 24 Mar 16:38:18 16:42:45 52° 100° (E) 16:47:10
ITAMSAT 1 24 Mar 16:40:23 16:45:16 40° 261° (W) 16:50:10 435.822/435.867
O/OREOS (USA 219) 24 Mar 16:45:24 16:45:58 10° 98° (E) 16:46:31 437.305
AO-7 24 Mar 16:56:30 17:04:33 53° 257° (WSW) 17:12:38 .
NO-84 24 Mar 17:11:31 17:14:37 29° 234° (SW) 17:17:59 435.350 FM
SO-50 24 Mar 17:18:48 17:20:39 12° 309° (NW) 17:22:29 436.795
STARS 24 Mar 17:22:43 17:23:53 11° 94° (E) 17:25:03 437.465
CUBESAT XI-V 24 Mar 17:24:38 17:28:24 24° 97° (E) 17:32:10 437.345
SRMSAT 24 Mar 17:30:53 17:34:12 15° 198° (SSW) 17:37:30 437.500
BEESAT 24 Mar 17:39:53 17:41:56 13° 293° (WNW) 17:43:58 436.000
XW-2D 24 Mar 18:12:09 18:14:47 18° 72° (ENE) 18:17:25 145.860 - 145.880
KKS-1 24 Mar 18:13:20 18:17:46 62° 284° (WNW) 18:22:09 437.445
CUTE-I 24 Mar 18:13:56 18:18:10 24° 69° (ENE) 18:22:26 437.470
XW-2B 24 Mar 18:17:46 18:20:38 21° 72° (ENE) 18:23:30 145.730 - 145.750
MOZHAYETS 4 24 Mar 18:18:09 18:19:23 11° 293° (WNW) 18:20:37
NUDT-PHONESAT 24 Mar 18:20:11 18:22:40 17° 72° (ENE) 18:25:10 437.300
O/OREOS (USA 219) 24 Mar 18:20:27 18:24:49 49° 291° (WNW) 18:29:13 437.305
KAITUO 1B 24 Mar 18:24:15 18:27:00 20° 72° (ENE) 18:29:45 145.475/437.950
XW-2C 24 Mar 18:27:21 18:30:39 28° 74° (ENE) 18:33:57 145.795 - 145.815
DOVE 4 24 Mar 18:44:20 18:48:47 70° 77° (ENE) 18:53:33 437.250
STARS 24 Mar 18:56:09 19:00:22 46° 286° (WNW) 19:04:34 437.465
CUBESAT XI-V 24 Mar 19:01:54 19:05:36 24° 289° (WNW) 19:09:20 437.345
YUBILEINY 24 Mar 19:06:45 19:14:02 29° 76° (ENE) 19:21:17 435.215
LilacSat-2 24 Mar 19:17:44 19:21:28 49° 260° (W) 19:25:12 437.200
XW-2F 24 Mar 19:20:31 19:24:12 48° 260° (W) 19:27:53 145.980 - 146.000
HO-68 24 Mar 19:27:06 19:33:19 33° 67° (ENE) 19:39:31 435.675
SEEDS 24 Mar 19:30:55 19:31:32 10° 68° (ENE) 19:32:11 437.485
CUTE 1.7 + AOD 2 24 Mar 19:31:04 19:33:55 18° 71° (ENE) 19:36:48 437.475
XW-2D 24 Mar 19:45:52 19:48:47 21° 264° (W) 19:51:42 145.860 - 145.880
XW-2B 24 Mar 19:52:01 19:54:41 18° 264° (W) 19:57:21 145.730 - 145.750
CUTE-I 24 Mar 19:53:14 19:57:59 32° 262° (W) 20:02:46 437.470
NUDT-PHONESAT 24 Mar 19:53:31 19:56:24 21° 263° (W) 19:59:17 437.300
KAITUO 1B 24 Mar 19:58:13 20:00:52 18° 264° (W) 20:03:31 145.475/437.950
UWE-3 24 Mar 19:59:16 20:00:21 11° 67° (ENE) 20:01:27 435.000/436.395/437.385
M-CUBED/EXP-1 PRIME 24 Mar 20:02:02 20:06:39 67° 288° (WNW) 20:11:15 437.505
XW-2C 24 Mar 20:03:00 20:04:50 13° 265° (W) 20:06:40 145.795 - 145.815
CUBEBUG 2 24 Mar 20:24:33 20:28:56 38° 74° (ENE) 20:33:19 437.445
PCSat 24 Mar 20:29:12 20:34:33 57° 64° (ENE) 20:39:51 145.827
STRAND 1 24 Mar 20:36:20 20:41:23 59° 101° (E) 20:46:23 437.568
XW-2A 24 Mar 20:39:48 20:42:54 31° 262° (W) 20:46:01 145.665 - 145.685
Oscar 11 24 Mar 20:40:51 20:42:49 13° 69° (ENE) 20:44:47 .
ZACube-1 24 Mar 20:42:43 20:46:00 20° 71° (ENE) 20:49:17 437.345
RS-15 24 Mar 20:45:58 20:52:14 15° 31° (NNE) 20:58:23 29.354- 29.394
AAUSAT CUBESAT 2 24 Mar 20:53:42 20:57:42 55° 77° (ENE) 21:01:43 437.432
YUBILEINY 24 Mar 21:02:44 21:10:55 48° 271° (W) 21:19:07 435.215
SEEDS 24 Mar 21:02:47 21:06:46 45° 261° (W) 21:10:46 437.485
CUTE 1.7 + AOD 2 24 Mar 21:06:00 21:09:31 26° 263° (W) 21:13:04 437.475
AO-73 24 Mar 21:11:23 21:15:36 39° 74° (ENE) 21:19:48 145.935
HO-68 24 Mar 21:14:21 21:20:49 37° 261° (W) 21:27:19 435.675
AO-85 24 Mar 21:17:15 21:21:28 35° 113° (ESE) 21:25:26 145.980
ISS 24 Mar 21:22:12 21:25:25 66° 131° (SE) 21:28:38 437.550
UWE-3 24 Mar 21:31:40 21:36:15 57° 260° (W) 21:40:50 435.000/436.395/437.385
Tancredo 1 24 Mar 21:32:07 21:35:16 74° 313° (NW) 21:38:26 437.200
CUBEBUG 2 24 Mar 22:02:41 22:05:34 16° 266° (W) 22:08:28 437.445
PRISM 24 Mar 22:12:23 22:15:18 18° 96° (E) 22:18:14 437.425
Oscar 11 24 Mar 22:14:30 22:18:32 39° 261° (W) 22:22:36 .
PCSat 24 Mar 22:14:52 22:17:22 13° 257° (WSW) 22:19:52 145.827
STRAND 1 24 Mar 22:18:00 22:19:59 12° 294° (WNW) 22:21:56 437.568
ZACube-1 24 Mar 22:18:05 22:22:02 28° 263° (W) 22:25:58 437.345
UNISAT 6 24 Mar 22:23:39 22:24:56 11° 93° (E) 22:26:11 437.425
DELFI C3 24 Mar 22:32:11 22:36:05 89° 83° (E) 22:40:00 145.870
AO-73 24 Mar 22:49:29 22:51:53 14° 266° (W) 22:54:17 145.935
FO-29 24 Mar 22:50:08 22:53:17 15° 92° (E) 22:56:18 435.910
RS-15 24 Mar 22:56:13 23:08:12 57° 58° (ENE) 23:19:33 29.354- 29.394
AO-85 24 Mar 22:58:57 23:01:53 17° 304° (NW) 23:04:41 145.980
ISS 24 Mar 23:01:28 23:02:10 10° 326° (NNW) 23:02:53 437.550
LO-87 24 Mar 23:11:24 23:14:12 22° 73° (ENE) 23:17:00 145.935 - 145.965
BEESAT 3 24 Mar 23:16:56 23:20:46 68° 116° (ESE) 23:24:42 437.485
BEESAT 2 24 Mar 23:28:23 23:31:48 30° 112° (ESE) 23:35:17 435.950
PRISM 24 Mar 23:47:05 23:50:29 25° 288° (WNW) 23:53:54 437.425
TIGRISAT 24 Mar 23:47:57 23:52:18 63° 284° (WNW) 23:56:32 435.000
UNISAT 6 24 Mar 23:57:38 00:01:48 43° 286° (WNW) 00:05:53 437.425
VELOX 1 25 Mar 00:01:16 00:03:30 14° 68° (ENE) 00:05:44 145.980
AIST 2D 25 Mar 00:04:59 00:07:34 19° 96° (E) 00:10:09 435.315
ESTCUBE 1 25 Mar 00:13:55 00:18:22 78° 77° (ENE) 00:22:51 437.505/2401.250
SO-50 25 Mar 00:14:40 00:16:08 11° 51° (NE) 00:17:36 436.795
FO-29 25 Mar 00:33:08 00:38:46 48° 288° (WNW) 00:43:53 435.910
LO-87 25 Mar 00:45:31 00:47:33 14° 265° (W) 00:49:36 145.935 - 145.965
NANOSAT C BR1 25 Mar 00:49:04 00:53:02 39° 99° (E) 00:56:56 145.865
EO-79 25 Mar 00:52:14 00:56:20 47° 100° (E) 01:00:23 145.935-145.965
SPROUT 25 Mar 00:58:23 01:02:36 59° 75° (ENE) 01:06:50 437.525
BEESAT 2 25 Mar 01:07:05 01:09:35 16° 305° (NW) 01:12:07 435.950
RS-15 25 Mar 01:09:41 01:19:56 35° 256° (WSW) 01:29:50 29.354- 29.394
DX 1 25 Mar 01:18:55 01:23:03 46° 74° (ENE) 01:27:12 434.975-435.025
POLYITAN 1 25 Mar 01:19:39 01:23:52 72° 284° (WNW) 01:28:02 437.675
QB50P2 25 Mar 01:24:14 01:28:23 57° 285° (WNW) 01:32:30 145.880/145.840
VELOX 1 25 Mar 01:35:28 01:39:33 38° 261° (W) 01:43:40 145.980
AIST 2D 25 Mar 01:38:31 01:40:35 15° 288° (WNW) 01:42:39 435.315
DUCHIFAT 1 25 Mar 01:39:33 01:43:36 49° 285° (WNW) 01:47:38 145.980
Oscar 19 25 Mar 01:39:48 01:41:39 12° 93° (E) 01:43:31 437.125/150
50 SAT 25 Mar 01:50:34 01:53:37 30° 262° (W) 01:56:41 437.505
SO-50 25 Mar 01:52:30 01:56:56 61° 245° (WSW) 02:01:21 436.795
UKube-1 25 Mar 02:02:48 02:07:05 72° 257° (WSW) 02:11:23 .
BUGSAT 1 25 Mar 02:03:28 02:07:39 87° 282° (WNW) 02:11:45 437.445
NANOSAT C BR1 25 Mar 02:26:33 02:28:19 12° 292° (WNW) 02:30:05 145.865
EO-79 25 Mar 02:31:03 02:31:35 10° 293° (WNW) 02:32:08 145.935-145.965
DX 1 25 Mar 02:58:29 02:59:23 11° 266° (W) 03:00:17 434.975-435.025
BEESAT 25 Mar 03:00:44 03:04:50 29° 71° (ENE) 03:08:56 436.000
ITUPSAT 1 25 Mar 03:15:13 03:19:43 42° 73° (ENE) 03:24:13 437.325
Gurwin Techsat 1B 25 Mar 03:15:17 03:20:36 73° 102° (ESE) 03:25:53 435.225
Oscar 19 25 Mar 03:16:09 03:21:13 58° 285° (WNW) 03:26:17 437.125/150
AO-7 25 Mar 03:18:39 03:19:17 10° 93° (E) 03:19:55 .
MOZHAYETS 4 25 Mar 03:34:37 03:38:21 25° 72° (ENE) 03:42:04
